Retour au catalogue

CZ-6A DEB

ActifPO
NORAD 56651·DEBRIS·🇨🇳 China

Lancé Nov 11, 2022 depuis Taiyuan Satellite Launch Center

Loading…

Prochains Passages (prochaines 24 heures)

TLE

FraisSource: Space-Track

Époque: Sep 13, 2026, 10:54 UTC

1 56651U 22151AGB 26256.45446919  .00008660  00000-0  12127-2 0  9992
2 56651  98.6049 327.8962 0058324 352.6579   7.3769 14.76623833188818

Suivez CZ-6A DEB en temps réel avec AllMySat

Download on the App Store